|
|
Asteroid 2010 NU1
(Preview)
Orbital elements: 2010 NU1 Earth MOID = 0.3183 AU Epoch 2010 July 23.0 TT = JDT 2455400.5 MPC M 29.07183 (2000.0) P Q n 0.38464736 Peri. 37.34147 -0.72002957 -0.46378562 a 1.8725247 Node 106.92579 +0.43123678 -0.88183769 e 0.7529538 Incl. 32.65442 +0.54368396 +0.08523607 P 2.56 H 21.2 G 0.15 U 9 [u...
|
Blobrana
|
0
|
|
|
|
|
Asteroid 2010 NT1
(Preview)
Orbital elements: 2010 NT1 Earth MOID = 0.2063 AU Epoch 2010 July 23.0 TT = JDT 2455400.5 MPC M 27.91317 (2000.0) P Q n 0.56073312 Peri. 306.15018 -0.47036577 +0.62899179 a 1.4564601 Node 283.32201 -0.45407481 -0.77393564 e 0.2174495 Incl. 39.50073 -0.75668495 +0.07343674 P 1.76 H 19.2 G 0.15 U 9 [...
|
Blobrana
|
0
|
|
|
|
|
Asteroid 2000 UK11
(Preview)
The 27 - 60 metre wide asteroid 2000 UK11 will make a close pass (62.0 lunar distances, 0.1593 AU), travelling at 11.24 km/second, to the Earth-Moon system on the 1st November, 2010 @ 03:56 UT. See more The Lunar Distance (...
|
Blobrana
|
0
|
|
|
|
|
Asteroid 2003 SQ222
(Preview)
A small asteroid, perhaps 3 to 6 meters in diameter - the size of a room or house - came within 88,000 km of Earth late on Friday, September 27 2003. Less than a quarter of the distance to the Moon, this is the closest well-documented Earth encounter of an asteroid that has not struck our atmosphere. Known...
|
Blobrana
|
0
|
|
|